Indianapolis Mount Comfort, IN

9:35 PM EST on December 10, 2019 (GMT -0500)
Mount Comfort

Weather History for KMQJ - June, 2019

Change the Weather History Date:

Friday, June 7, 2019

  Actual Average (KEYE) Record (KEYE)
Temperature  
Mean Temperature 70 °F -  
Max Temperature 80 °F 74 °F 92 °F (2011)
Min Temperature 60 °F 59 °F 48 °F (1998)
Cooling Degree Days 5    
Growing Degree Days 20 (Base 50)    
Moisture  
Dew Point 63 °F    
Average Humidity 81    
Maximum Humidity 100    
Minimum Humidity 48    
Precipitation  
Precipitation 0.00 in - - ()
Sea Level Pressure  
Sea Level Pressure 29.90 in    
Wind  
Wind Speed 10 mph (NE)    
Max Wind Speed 18 mph    
Max Gust Speed 25 mph    
Visibility 8 miles    
Events      
Averages and records for this station are not official NWS values.
T = Trace of Precipitation, MM = Missing Value Source: NWS Daily Summary

Daily Weather History Graph

Daily Weather History Graph

Search for Another Location

Airport or City:

Astronomy

Jun. 07, 2019 Rise Set
Actual Time 6:15 AM EDT 9:09 PM EDT
Civil Twilight 5:43 AM EDT 9:42 PM EDT
Nautical Twilight 5:02 AM EDT 10:23 PM EDT
Astronomical Twilight 4:15 AM EDT 11:10 PM EDT
Moon 10:31 AM EDT (6/7) 12:26 AM EDT (6/7)
Length of Visible Light 15h 59m
Length of Day
14h 54m
Waxing Crescent, 22% of the Moon is Illuminated
Jun 7
Waxing Crescent
Jun 10
First Quarter
Jun 17
Full
Jun 25
Last Quarter
Jul 2
New

Hourly Weather History & Observations

Time (EDT) Temp. Heat Index Dew Point Humidity Pressure Visibility Wind Dir Wind Speed Gust Speed Precip Events Conditions
12:06 AM 69.8 °F - 68.0 °F 94% 29.89 in 10.0 mi ENE 8.1 mph - N/A   Clear
12:23 AM 69.8 °F - 68.0 °F 94% 29.89 in 10.0 mi ENE 9.2 mph - N/A   Clear
12:42 AM 68.0 °F - 68.0 °F 100% 29.89 in 10.0 mi ENE 8.1 mph - N/A   Clear
1:02 AM 68.0 °F - 68.0 °F 100% 29.89 in 10.0 mi NE 8.1 mph - N/A   Clear
1:24 AM 66.2 °F - 66.2 °F 100% 29.89 in 10.0 mi ENE 8.1 mph - N/A   Clear
1:44 AM 66.2 °F - 66.2 °F 100% 29.89 in 10.0 mi ENE 9.2 mph - N/A   Clear
2:02 AM 66.2 °F - 66.2 °F 100% 29.89 in 7.0 mi ENE 8.1 mph - N/A   Clear
2:24 AM 66.2 °F - 66.2 °F 100% 29.89 in 7.0 mi ENE 5.8 mph - N/A   Clear
2:45 AM 64.4 °F - 64.4 °F 100% 29.88 in 7.0 mi NNE 6.9 mph - N/A   Clear
3:04 AM 64.4 °F - 64.4 °F 100% 29.88 in 5.0 mi NE 5.8 mph - N/A   Clear
3:23 AM 64.4 °F - 64.4 °F 100% 29.88 in 5.0 mi NE 5.8 mph - N/A   Clear
3:44 AM 64.4 °F - 64.4 °F 100% 29.88 in 5.0 mi ENE 5.8 mph - N/A   Clear
4:04 AM 64.4 °F - 64.4 °F 100% 29.88 in 5.0 mi NNE 5.8 mph - N/A   Clear
4:24 AM 62.6 °F - 62.6 °F 100% 29.88 in 5.0 mi NE 4.6 mph - N/A   Clear
4:43 AM 62.6 °F - 62.6 °F 100% 29.88 in 4.0 mi NE 6.9 mph - N/A   Clear
5:02 AM 62.6 °F - 62.6 °F 100% 29.88 in 4.0 mi NE 4.6 mph - N/A   Clear
5:22 AM 62.6 °F - 62.6 °F 100% 29.88 in 3.0 mi NE 5.8 mph - N/A   Clear
5:42 AM 62.6 °F - 62.6 °F 100% 29.89 in 3.0 mi NE 6.9 mph - N/A   Clear
6:04 AM 60.8 °F - 60.8 °F 100% 29.89 in 3.0 mi ENE 4.6 mph - N/A   Clear
6:24 AM 60.8 °F - 60.8 °F 100% 29.89 in 1.8 mi NE 6.9 mph - N/A   Unknown
6:42 AM 60.8 °F - 60.8 °F 100% 29.89 in 1.8 mi NE 5.8 mph - N/A   Unknown
7:04 AM 62.6 °F - 62.6 °F 100% 29.89 in 2.0 mi NE 6.9 mph - N/A   Clear
7:23 AM 62.6 °F - 62.6 °F 100% 29.90 in 2.0 mi NE 5.8 mph - N/A   Clear
7:47 AM 62.6 °F - 62.6 °F 100% 29.90 in 3.0 mi ENE 6.9 mph - N/A   Clear
8:18 AM 64.4 °F - 64.4 °F 100% 29.91 in 4.0 mi NE 8.1 mph - N/A   Clear
8:43 AM 66.2 °F - 64.4 °F 94% 29.91 in 5.0 mi ENE 8.1 mph - N/A   Clear
9:02 AM 66.2 °F - 64.4 °F 94% 29.92 in 5.0 mi NE 8.1 mph - N/A   Clear
9:24 AM 68.0 °F - 64.4 °F 88% 29.91 in 7.0 mi NE 10.4 mph - N/A   Clear
9:43 AM 68.0 °F - 64.4 °F 88% 29.91 in 7.0 mi NE 12.7 mph - N/A   Clear
10:08 AM 68.0 °F - 64.4 °F 88% 29.90 in 10.0 mi NE 9.2 mph - N/A   Clear
10:27 AM 68.0 °F - 64.4 °F 88% 29.91 in 10.0 mi NE 11.5 mph - N/A   Clear
10:45 AM 69.8 °F - 66.2 °F 88% 29.91 in 10.0 mi NE 12.7 mph - N/A   Clear
11:02 AM 69.8 °F - 66.2 °F 88% 29.91 in 10.0 mi NE 11.5 mph - N/A   Clear
11:23 AM 71.6 °F - 66.2 °F 83% 29.91 in 10.0 mi ENE 10.4 mph - N/A   Clear
11:46 AM 71.6 °F - 66.2 °F 83% 29.92 in 10.0 mi NE 13.8 mph - N/A   Clear
12:08 PM 73.4 °F - 66.2 °F 78% 29.93 in 10.0 mi ENE 13.8 mph 19.6 mph N/A   Clear
12:25 PM 73.4 °F - 66.2 °F 78% 29.93 in 10.0 mi ENE 13.8 mph 19.6 mph N/A   Clear
12:46 PM 75.2 °F - 66.2 °F 73% 29.92 in 10.0 mi ENE 16.1 mph 19.6 mph N/A   Clear
1:02 PM 75.2 °F - 66.2 °F 73% 29.92 in 10.0 mi ENE 17.3 mph 20.7 mph N/A   Clear
1:22 PM 77.0 °F - 68.0 °F 74% 29.92 in 10.0 mi NE 17.3 mph 21.9 mph N/A   Clear
1:44 PM 77.0 °F - 66.2 °F 69% 29.91 in 10.0 mi ENE 15.0 mph - N/A   Clear
2:02 PM 78.8 °F - 68.0 °F 69% 29.91 in 10.0 mi ENE 15.0 mph 20.7 mph N/A   Scattered Clouds
2:26 PM 78.8 °F - 64.4 °F 61% 29.90 in 10.0 mi ENE 17.3 mph 25.3 mph N/A   Scattered Clouds
2:45 PM 78.8 °F - 60.8 °F 54% 29.90 in 10.0 mi East 18.4 mph 24.2 mph N/A   Clear
3:02 PM 78.8 °F - 62.6 °F 57% 29.90 in 10.0 mi East 18.4 mph 21.9 mph N/A   Clear
3:23 PM 78.8 °F - 60.8 °F 54% 29.89 in 10.0 mi NE 15.0 mph 21.9 mph N/A   Clear
3:43 PM 80.6 °F 81.8 °F 62.6 °F 54% 29.89 in 10.0 mi ENE 15.0 mph 20.7 mph N/A   Clear
4:05 PM 80.6 °F 81.5 °F 60.8 °F 51% 29.89 in 10.0 mi East 15.0 mph 20.7 mph N/A   Clear
4:22 PM 80.6 °F 81.5 °F 60.8 °F 51% 29.88 in 10.0 mi East 16.1 mph 21.9 mph N/A   Clear
4:45 PM 80.6 °F 81.1 °F 59.0 °F 48% 29.88 in 10.0 mi ENE 13.8 mph 25.3 mph N/A   Clear
5:03 PM 78.8 °F - 60.8 °F 54% 29.87 in 10.0 mi ENE 12.7 mph - N/A   Clear
5:24 PM 78.8 °F - 60.8 °F 54% 29.87 in 10.0 mi ENE 17.3 mph 20.7 mph N/A   Clear
5:46 PM 78.8 °F - 60.8 °F 54% 29.87 in 10.0 mi ENE 16.1 mph 21.9 mph N/A   Clear
6:06 PM 78.8 °F - 60.8 °F 54% 29.87 in 10.0 mi ENE 15.0 mph - N/A   Clear
6:23 PM 77.0 °F - 59.0 °F 54% 29.87 in 10.0 mi ENE 17.3 mph 20.7 mph N/A   Clear
6:47 PM 77.0 °F - 60.8 °F 57% 29.87 in 10.0 mi ENE 15.0 mph 19.6 mph N/A   Clear
7:05 PM 75.2 °F - 60.8 °F 61% 29.87 in 10.0 mi ENE 13.8 mph 19.6 mph N/A   Clear
7:25 PM 75.2 °F - 60.8 °F 61% 29.88 in 10.0 mi NE 11.5 mph 20.7 mph N/A   Clear
7:45 PM 73.4 °F - 60.8 °F 65% 29.88 in 10.0 mi NE 11.5 mph 18.4 mph N/A   Clear
8:02 PM 73.4 °F - 60.8 °F 65% 29.89 in 10.0 mi NE 11.5 mph - N/A   Clear
8:25 PM 73.4 °F - 60.8 °F 65% 29.89 in 10.0 mi NE 10.4 mph - N/A   Clear
8:46 PM 71.6 °F - 60.8 °F 69% 29.89 in 10.0 mi NE 9.2 mph - N/A   Clear
9:06 PM 71.6 °F - 60.8 °F 69% 29.90 in 10.0 mi NE 9.2 mph - N/A   Clear
9:23 PM 69.8 °F - 62.6 °F 78% 29.90 in 10.0 mi NE 9.2 mph - N/A   Clear
9:45 PM 69.8 °F - 62.6 °F 78% 29.90 in 10.0 mi NE 11.5 mph - N/A   Clear
10:02 PM 69.8 °F - 62.6 °F 78% 29.91 in 10.0 mi NE 11.5 mph 17.3 mph N/A   Clear
10:22 PM 68.0 °F - 62.6 °F 83% 29.92 in 10.0 mi NE 11.5 mph - N/A   Clear
10:46 PM 68.0 °F - 62.6 °F 83% 29.93 in 10.0 mi NE 12.7 mph - N/A   Clear
11:04 PM 68.0 °F - 62.6 °F 83% 29.93 in 10.0 mi NE 9.2 mph - N/A   Clear
11:23 PM 66.2 °F - 60.8 °F 83% 29.93 in 10.0 mi NE 10.4 mph - N/A   Clear
11:43 PM 66.2 °F - 60.8 °F 83% 29.93 in 10.0 mi ENE 11.5 mph - N/A   Clear